Wetbulb
49.60 49.82 52.40 51.89 51.35 51.47 51.85 53.04 46.36 59.77 60.25 50.26 51.70 46.53 47.71 48.13 49.50 51.61 49.06 49.20 47.64 46.43 47.03 45.64 44.92 44.71 46.79 50.15 50.01 47.35 48.11 47.14 42.27 43.86 46.52 47.81 47.17 45.73 45.13 38.86 36.28 39.16 38.34 39.02
48.06 49.19 50.99 51.32 50.82 52.14 54.18 50.00 52.42 56.35 54.69 45.96 46.51 48.04 47.72 50.78 48.48 49.45 49.47 48.21 49.47 49.88 47.67 44.24 46.67 47.51 48.05 49.03 48.96 48.41 48.37 45.16 39.95 40.90 44.13 46.44 44.73 46.11 45.07 42.88 42.38 37.96 36.91 39.33
49.09 48.87 49.87 50.80 50.65 52.19 56.83 51.92 47.60 53.00 52.21 51.36 49.13 46.67 46.58 47.21 50.34 49.89 50.39 49.48 50.69 49.14 47.32 48.30 46.29 46.82 47.20 47.81 48.20 43.82 47.78 45.93 43.53 39.20 41.76 45.03 42.38 44.00 44.59 43.84 38.38 38.92 39.72 40.97
49.39 49.79 51.25 50.52 50.80 51.83 56.23 53.34 49.55 52.64 45.91 46.30 48.79 48.98 47.81 46.98 46.90 50.19 51.44 48.89 49.91 48.90 45.50 46.06 45.80 47.49 45.47 47.22 44.92 47.96 48.51 43.20 43.42 42.33 41.95 41.93 42.18 42.64 43.42 41.90 42.72 38.93 41.58 41.02
48.23 50.06 50.59 50.36 50.85 51.90 56.91 50.89 50.05 50.67 50.32 49.09 47.65 45.69 46.73 47.53 47.76 49.18 48.19 48.90 49.84 50.22 47.51 48.09 46.18 47.80 47.09 46.49 47.45 47.47 46.24 42.65 41.84 39.71 41.06 40.74 39.63 42.69 42.90 43.61 43.47 42.93 43.46 42.61
48.43 50.63 49.89 49.94 50.39 51.59 55.69 56.76 53.31 52.90 44.15 47.14 46.65 46.59 47.99 48.45 50.94 48.83 49.71 51.51 49.83 48.60 48.62 50.47 51.72 50.55 50.13 49.10 47.83 46.09 45.21 42.87 39.96 36.10 37.51 37.82 35.91 41.16 42.91 43.22 44.93 44.39 40.98 45.48
50.40 49.96 49.42 49.51 50.04 51.68 59.32 58.64 54.75 52.01 44.58 46.00 45.44 47.26 49.62 49.72 50.25 49.39 48.81 51.00 50.46 48.73 52.35 52.05 51.19 49.85 48.34 47.89 45.72 46.42 42.39 41.90 39.14 36.88 33.87 31.76 40.74 43.30 43.36 43.86 45.04 46.16 45.35 46.15
49.55 49.02 48.90 49.36 49.95 51.40 60.54 58.42 55.41 51.36 41.24 47.30 46.34 48.42 49.45 49.92 50.39 49.09 49.36 48.83 50.37 52.47 49.58 47.09 43.25 43.39 43.07 43.18 43.59 43.39 44.22 41.56 35.24 36.79 34.36 38.20 40.57 40.42 39.92 39.88 41.13 45.88 45.11 46.12
48.56 48.69 48.88 49.52 50.42 51.95 59.87 57.92 56.96 55.23 48.03 45.65 49.26 48.94 50.65 48.84 49.09 48.44 46.44 48.63 50.65 48.62 47.36 45.28 40.81 38.77 41.56 39.34 41.01 43.23 41.81 42.37 41.93 35.04 35.54 33.78 39.85 42.44 45.63 45.15 38.56 45.10 46.14 45.83
48.23 48.66 49.31 49.73 50.65 51.52 59.38 57.52 57.02 56.96 51.57 49.83 52.03 49.37 49.32 51.76 50.83 48.80 46.85 46.79 47.10 48.26 45.87 43.61 42.85 40.98 40.61 38.01 36.43 35.20 39.03 39.13 37.57 36.13 36.62 38.88 42.90 43.08 45.87 36.31 39.19 46.64 47.00 47.52
49.32 49.48 49.37 49.89 50.66 51.74 58.58 56.65 57.88 58.14 52.53 51.96 53.05 51.90 50.81 50.22 52.49 49.07 48.39 47.92 47.40 47.08 45.27 45.02 42.65 42.00 40.72 39.93 40.70 39.49 39.38 38.21 37.03 35.33 35.00 33.11 43.79 44.56 40.86 45.78 48.24 47.08 48.08 48.65
48.92 49.32 49.41 50.03 50.86 51.81 54.85 56.29 57.34 58.25 55.02 52.38 54.68 53.80 54.37 53.34 52.76 52.46 50.59 51.00 49.25 50.75 47.51 44.85 42.69 38.94 37.09 40.31 39.57 41.79 38.64 42.85 42.04 41.07 42.16 44.71 46.23 47.61 48.94 48.63 47.79 48.29 48.49 49.14
48.78 49.17 49.54 50.38 51.16 51.68 54.83 57.05 56.66 57.24 53.85 52.48 54.15 51.87 54.15 55.84 55.01 55.98 51.12 50.72 51.35 49.46 50.10 47.92 45.69 37.55 43.94 36.96 40.92 41.15 42.97 43.28 42.06 40.41 44.27 45.08 46.45 47.97 48.74 48.93 48.23 48.81 49.34 49.42
48.44 49.22 49.28 50.11 50.83 51.40 53.77 56.53 54.75 56.37 52.63 42.08 49.71 53.79 51.88 53.85 56.05 55.50 53.94 52.58 50.66 49.40 51.08 47.53 41.45 41.79 43.72 42.48 43.06 43.21 44.09 43.55 42.10 42.01 45.24 45.96 46.53 46.89 47.92 48.56 49.78 49.16 49.74 48.88
49.32 49.43 49.59 50.51 50.78 51.12 54.52 53.91 53.33 54.27 53.00 43.80 49.18 51.29 51.36 53.03 53.88 52.65 53.09 52.40 51.51 50.83 47.64 41.90 44.77 43.88 43.78 42.56 42.62 42.45 44.12 42.90 42.20 41.58 43.92 44.05 45.72 48.22 48.74 47.87 48.27 48.88 48.20 45.38
49.45 49.92 50.34 50.36 50.26 50.42 57.81 53.15 52.67 52.22 54.61 51.84 43.81 49.48 48.66 51.16 52.47 51.67 50.82 51.60 51.54 51.69 48.72 41.84 44.64 43.25 45.57 38.79 41.36 42.03 44.23 45.56 46.10 44.55 47.38 47.49 47.95 48.02 47.95 46.46 45.27 45.14 44.40 43.23
48.99 49.55 49.67 49.49 50.55 54.43 51.81 49.60 50.20 48.23 52.17 49.75 42.01 45.45 47.44 48.26 50.16 47.51 49.89 50.59 49.70 50.42 45.01 40.33 42.37 43.30 46.13 39.18 41.70 39.63 41.65 43.49 45.17 46.35 47.13 45.69 44.07 42.07 42.43 41.60 41.11 40.44 39.53 38.53
48.77 48.95 48.82 48.67 48.86 50.87 52.44 51.33 47.58 48.74 50.64 50.96 41.97 41.11 46.62 47.64 44.21 42.99 45.38 45.38 49.44 44.84 41.97 42.16 40.90 41.35 42.72 38.73 36.12 38.23 40.60 42.20 43.72 41.63 44.85 42.95 41.58 40.98 39.81 39.56 37.05 34.13 33.70 33.71
47.82 47.91 48.12 53.51 51.42 52.51 52.04 46.57 46.92 52.19 51.44 45.12 37.55 40.99 38.53 44.93 40.73 41.30 43.80 46.17 39.35 43.27 39.36 40.28 43.65 37.54 34.57 31.41 34.08 36.07 37.54 37.74 38.89 40.07 41.16 39.58 37.78 36.11 35.27 34.68 34.57 33.42 34.04 35.23
47.68 52.17 49.97 45.70 48.62 46.22 47.75 50.51 49.44 47.78 46.37 43.80 35.92 40.73 37.22 43.48 41.24 38.44 39.94 40.75 38.33 37.11 38.45 40.69 37.37 30.40 33.64 34.95 35.47 36.48 37.59 39.79 39.43 37.16 34.36 34.53 34.14 34.69 35.41 35.76 36.13 36.70 37.10 37.58
51.31 48.34 44.47 50.12 46.81 50.47 46.35 41.42 41.46 42.67 38.57 40.42 38.96 41.32 38.99 42.20 38.75 36.70 39.15 37.06 37.64 34.98 37.35 38.17 34.90 29.88 31.15 35.65 36.16 37.88 38.27 38.76 38.91 38.99 38.29 38.22 37.34 36.35 35.77 36.15 36.94 37.45 37.42 36.63
48.22 48.43 47.92 48.04 45.09 43.92 37.21 35.19 37.35 38.14 36.28 37.65 38.23 38.48 40.32 39.35 43.69 38.33 37.87 34.23 35.00 30.93 37.89 35.20 31.10 30.88 34.71 35.82 36.07 37.06 37.70 37.55 37.68 38.67 37.93 37.98 37.83 38.35 37.59 36.39 35.61 34.85 34.20 33.26
49.66 46.00 40.20 43.53 38.28 35.37 35.92 32.64 34.63 34.23 35.19 35.60 36.04 35.36 39.30 39.59 41.91 36.23 36.52 32.84 33.35 38.29 33.15 31.90 31.43 33.58 34.26 35.94 36.49 36.47 37.66 37.41 37.13 36.77 37.05 36.57 35.74 34.94 34.16 33.33 33.89 34.38 34.36 34.65
38.78 37.17 33.92 34.65 34.11 34.47 34.29 35.56 35.56 33.38 34.29 35.37 38.09 35.74 37.19 36.82 36.10 34.29 33.74 32.84 34.65 31.18 29.43 29.48 31.53 34.57 34.32 35.88 36.59 35.97 34.04 32.27 34.12 34.43 34.50 33.02 32.86 32.64 33.20 32.55 32.45 32.48 32.15 32.50
35.78 37.59 30.83 31.18 31.92 32.84 32.47 32.84 33.74 34.27 35.07 36.10 36.28 35.74 38.26 33.92 32.84 33.56 33.53 30.84 29.97 31.33 30.60 32.01 33.72 34.17 35.04 34.52 34.01 34.29 33.35 32.39 34.33 34.90 32.90 32.16 31.94 32.70 32.78 32.79 31.74 30.68 29.75 28.65
35.10 34.20 31.57 32.84 32.47 31.75 32.29 32.47 32.11 35.04 34.83 35.37 36.05 33.92 34.11 31.75 33.65 31.57 30.83 30.99 28.88 30.14 32.32 33.33 32.39 34.74 34.87 33.89 35.13 35.75 34.33 34.07 34.22 34.18 33.43 32.20 30.95 30.65 31.09 30.72 28.51 27.93 28.05 26.62
33.00 32.26 33.74 33.56 33.02 32.11 32.11 33.02 32.84 34.76 34.11 32.66 35.36 31.93 29.89 33.05 31.02 29.41 32.97 31.30 33.15 33.75 33.20 33.50 35.81 35.46 35.35 34.06 35.45 33.50 33.74 33.96 33.77 32.48 30.43 29.35 28.93 28.46 27.31 25.91 26.39 26.60 26.99 26.46
MSLP
1007.32 1007.47 1007.66 1008.29 1009.46 1010.71 1011.84 1010.58 1010.31 1010.93 1010.92 1011.27 1010.20 1008.91 1008.05 1007.65 1007.42 1007.57 1007.30 1007.06 1007.21 1007.60 1008.02 1008.45 1008.74 1009.11 1009.56 1010.37 1010.21 1010.01 1010.64 1010.43 1010.62 1010.82 1011.49 1011.57 1011.27 1011.05 1011.45 1011.59 1012.09 1012.32 1011.69 1010.07
1006.36 1007.10 1007.41 1007.67 1009.04 1009.55 1009.33 1009.09 1009.59 1011.33 1011.04 1008.93 1008.76 1008.37 1007.69 1007.28 1007.03 1007.00 1007.06 1007.04 1007.29 1007.81 1008.08 1008.73 1009.20 1009.75 1010.76 1010.99 1010.84 1010.71 1010.87 1010.84 1010.79 1011.20 1011.78 1011.74 1011.31 1011.34 1011.48 1011.95 1012.15 1011.63 1011.21 1009.81
1005.46 1006.30 1007.35 1007.28 1008.32 1008.32 1007.66 1007.80 1008.62 1010.26 1010.14 1008.50 1007.59 1007.26 1007.05 1006.98 1007.03 1006.93 1007.04 1007.22 1007.50 1007.86 1008.37 1009.04 1009.46 1010.17 1011.13 1011.51 1011.52 1011.62 1011.33 1011.05 1010.73 1010.69 1010.58 1010.86 1011.12 1011.20 1011.39 1011.36 1011.41 1010.66 1010.20 1009.35
1004.79 1005.53 1005.99 1006.51 1007.29 1007.45 1007.60 1006.16 1006.24 1006.84 1007.45 1007.72 1007.03 1006.69 1006.50 1006.42 1006.71 1006.87 1006.87 1007.13 1007.12 1007.52 1008.31 1008.97 1009.47 1010.26 1011.26 1011.78 1012.07 1012.00 1011.73 1011.40 1011.76 1011.92 1012.07 1011.93 1011.46 1011.19 1011.22 1010.99 1010.63 1010.43 1009.30 1009.21
1004.32 1005.24 1005.39 1005.93 1006.60 1007.44 1006.69 1004.94 1005.49 1006.76 1006.48 1007.09 1006.81 1006.41 1006.16 1005.99 1006.70 1006.71 1006.71 1006.80 1007.45 1007.93 1008.16 1008.35 1008.89 1009.59 1010.43 1010.76 1012.12 1012.07 1012.38 1012.38 1012.74 1012.82 1013.00 1012.73 1012.05 1011.43 1011.07 1010.75 1010.40 1010.08 1009.44 1008.85
1003.50 1003.92 1004.50 1005.46 1006.10 1007.14 1004.90 1005.49 1005.54 1005.11 1006.87 1006.55 1006.28 1005.95 1006.09 1005.98 1006.58 1007.59 1007.53 1007.21 1007.87 1008.66 1009.32 1009.56 1009.63 1010.41 1010.56 1010.87 1011.48 1012.24 1012.65 1012.98 1013.47 1013.56 1013.81 1013.31 1012.48 1010.91 1010.48 1010.11 1009.87 1009.58 1009.05 1008.66
1002.29 1002.95 1003.92 1004.91 1005.72 1005.89 1003.88 1004.26 1004.64 1004.74 1006.33 1006.32 1005.99 1006.17 1006.29 1006.33 1006.79 1007.27 1008.41 1008.43 1008.51 1010.43 1010.43 1010.41 1010.71 1011.16 1011.63 1012.05 1012.69 1012.89 1013.23 1013.58 1014.33 1014.79 1014.79 1013.31 1010.90 1010.96 1010.68 1010.06 1009.58 1009.31 1009.25 1009.23
1001.79 1002.58 1003.70 1004.46 1005.16 1005.28 1004.63 1004.39 1004.17 1004.56 1006.20 1006.09 1006.40 1006.31 1006.60 1007.25 1007.64 1008.36 1009.15 1009.99 1010.04 1010.55 1010.60 1010.77 1011.56 1012.09 1012.53 1013.00 1013.54 1013.72 1013.82 1014.21 1015.04 1015.34 1014.33 1012.54 1010.92 1011.13 1011.21 1010.76 1009.54 1009.41 1009.35 1009.50
1001.86 1002.59 1003.29 1003.87 1004.59 1005.24 1004.77 1004.61 1004.31 1004.21 1005.41 1006.32 1005.95 1006.50 1006.75 1007.06 1007.76 1009.08 1010.39 1011.28 1011.50 1011.30 1011.22 1011.34 1011.74 1012.08 1012.32 1013.05 1013.83 1014.47 1014.65 1014.75 1014.75 1015.50 1014.56 1012.72 1011.52 1011.72 1011.77 1011.45 1010.30 1010.28 1010.26 1010.37
1001.58 1002.13 1002.81 1003.55 1004.28 1004.92 1004.38 1004.48 1004.69 1004.28 1005.28 1006.54 1006.59 1006.28 1006.75 1007.29 1007.63 1008.65 1010.28 1011.20 1011.66 1011.62 1011.52 1012.00 1012.30 1012.44 1012.78 1012.84 1013.40 1014.36 1014.97 1015.05 1015.09 1014.98 1014.23 1012.60 1011.63 1011.88 1012.06 1011.59 1011.37 1010.96 1011.05 1011.04
1001.00 1001.76 1002.50 1003.23 1003.92 1004.55 1003.96 1004.95 1005.15 1004.58 1005.78 1007.17 1007.32 1007.19 1007.15 1007.56 1007.43 1007.95 1010.03 1010.79 1011.32 1011.51 1011.59 1012.19 1012.66 1013.11 1013.20 1013.12 1013.12 1013.50 1013.68 1014.28 1014.66 1014.63 1013.81 1012.57 1012.06 1012.24 1012.04 1011.76 1011.44 1011.61 1011.60 1011.73
1000.81 1001.57 1002.22 1002.90 1003.55 1004.03 1003.99 1004.86 1005.54 1005.17 1005.90 1007.75 1008.11 1008.34 1008.27 1008.08 1007.91 1007.89 1009.27 1009.13 1009.54 1009.97 1010.88 1012.42 1013.25 1013.68 1014.04 1013.82 1013.05 1013.68 1013.45 1013.16 1013.21 1013.30 1012.28 1011.93 1012.10 1011.73 1011.92 1012.14 1012.07 1011.99 1012.13 1012.13
1000.73 1001.25 1001.85 1002.46 1003.24 1003.92 1004.06 1004.78 1005.50 1005.52 1006.97 1008.12 1007.98 1008.38 1008.63 1008.63 1008.72 1008.64 1008.37 1009.49 1009.52 1010.15 1010.80 1011.91 1013.27 1013.67 1013.74 1013.80 1013.16 1013.16 1013.23 1013.59 1013.38 1013.22 1011.87 1011.86 1011.92 1012.05 1012.08 1012.17 1012.24 1012.28 1012.35 1012.51
1000.25 1000.81 1001.55 1002.44 1003.30 1003.94 1004.15 1004.70 1005.82 1005.84 1006.91 1008.07 1008.96 1009.09 1009.21 1009.55 1008.83 1008.68 1008.56 1008.63 1009.82 1010.54 1011.07 1012.09 1013.17 1013.70 1014.03 1013.90 1013.45 1013.32 1013.45 1013.66 1013.21 1012.95 1012.19 1012.01 1012.02 1012.45 1012.75 1012.74 1012.68 1012.71 1012.76 1013.13
1000.09 1000.74 1001.54 1002.42 1003.33 1004.06 1004.46 1005.29 1006.16 1006.17 1006.89 1007.90 1009.03 1009.62 1010.21 1009.78 1009.25 1009.07 1009.12 1009.20 1009.60 1010.53 1011.68 1012.61 1013.51 1013.97 1014.42 1014.97 1014.68 1014.19 1014.22 1014.00 1013.85 1013.21 1013.46 1013.29 1012.91 1013.19 1013.51 1013.49 1013.42 1013.57 1013.64 1014.20
1000.07 1000.92 1001.84 1002.62 1003.44 1003.85 1003.94 1005.42 1007.01 1007.12 1006.89 1007.22 1009.47 1010.66 1010.70 1010.53 1010.15 1010.02 1010.15 1010.18 1010.47 1010.83 1011.80 1013.51 1014.06 1014.64 1014.66 1014.99 1014.98 1015.59 1015.48 1015.37 1015.12 1014.45 1014.38 1014.25 1014.29 1014.50 1014.72 1014.76 1014.95 1015.08 1015.29 1015.83
1001.17 1001.88 1002.67 1003.34 1003.74 1004.03 1004.89 1006.47 1007.55 1007.34 1007.25 1007.21 1009.98 1010.64 1011.18 1011.29 1010.82 1011.50 1011.42 1011.47 1011.69 1011.94 1013.35 1014.43 1014.96 1015.29 1015.04 1015.60 1015.77 1016.60 1016.44 1016.17 1015.89 1015.73 1015.15 1014.87 1015.65 1015.99 1016.40 1016.65 1017.13 1017.50 1017.98 1018.71
1002.28 1002.89 1003.49 1003.89 1004.19 1005.01 1005.65 1006.55 1007.07 1007.37 1006.63 1007.15 1009.59 1011.30 1011.65 1012.02 1012.11 1012.77 1013.09 1012.74 1012.67 1013.70 1014.55 1015.32 1015.61 1016.22 1016.38 1016.88 1017.70 1017.64 1017.40 1016.86 1016.66 1016.84 1016.59 1016.79 1017.22 1017.54 1018.05 1018.73 1019.38 1019.73 1020.18 1020.63
1003.62 1003.84 1003.97 1004.58 1005.60 1006.70 1007.35 1007.58 1007.44 1006.91 1007.23 1008.30 1009.91 1011.24 1012.40 1012.86 1013.29 1013.67 1013.82 1013.58 1014.17 1014.95 1015.16 1015.74 1015.87 1016.94 1017.80 1018.72 1018.88 1018.80 1018.66 1018.29 1018.10 1018.02 1018.01 1018.34 1018.65 1019.30 1019.85 1020.26 1020.72 1020.98 1021.47 1021.71
1003.48 1003.52 1004.47 1006.25 1007.51 1007.76 1007.49 1007.37 1007.42 1007.59 1008.94 1010.00 1011.68 1012.60 1013.15 1013.39 1013.80 1014.42 1014.60 1014.63 1014.89 1015.15 1016.03 1016.21 1016.55 1018.24 1019.28 1019.70 1019.89 1019.78 1019.45 1018.93 1018.68 1018.73 1019.40 1019.75 1020.07 1020.49 1020.96 1021.22 1021.35 1021.30 1021.37 1021.44
1004.45 1005.99 1007.42 1007.67 1007.68 1007.70 1008.09 1008.90 1009.48 1010.12 1011.17 1012.06 1012.88 1012.97 1013.32 1014.10 1013.92 1014.53 1015.12 1015.10 1015.43 1015.46 1015.97 1016.32 1017.26 1018.66 1019.66 1020.18 1020.26 1020.11 1020.05 1019.81 1019.53 1019.52 1019.99 1020.40 1020.65 1020.98 1021.28 1021.67 1021.86 1022.01 1022.08 1022.07
1006.27 1006.38 1007.46 1007.83 1008.22 1008.48 1009.29 1010.99 1011.47 1011.64 1012.70 1013.24 1013.49 1013.83 1013.92 1014.44 1014.29 1014.59 1015.40 1015.48 1015.92 1015.81 1016.28 1016.72 1017.55 1019.07 1019.90 1020.32 1020.53 1020.62 1020.75 1020.78 1020.69 1020.76 1020.96 1021.22 1021.43 1021.68 1021.97 1022.19 1022.30 1022.44 1022.50 1022.69
1006.57 1006.92 1008.22 1008.78 1010.12 1010.50 1011.04 1012.08 1012.79 1013.31 1013.63 1013.91 1014.07 1014.37 1014.49 1014.71 1014.69 1015.16 1015.37 1015.69 1016.00 1016.15 1016.56 1016.92 1017.97 1019.23 1020.14 1020.56 1020.78 1021.00 1021.28 1021.43 1021.39 1021.48 1021.67 1021.85 1022.10 1022.37 1022.70 1022.90 1023.01 1023.02 1022.76 1022.90
1008.75 1009.71 1010.93 1011.69 1012.36 1012.72 1013.00 1013.29 1013.74 1014.48 1014.44 1014.36 1014.31 1014.64 1014.79 1015.12 1015.18 1015.51 1015.61 1016.33 1016.42 1016.44 1016.64 1017.36 1018.63 1019.45 1020.30 1020.65 1020.94 1021.14 1021.54 1021.98 1021.79 1021.98 1022.31 1022.69 1022.90 1023.15 1023.40 1023.60 1023.67 1023.68 1023.60 1023.60
1010.86 1011.49 1012.77 1013.35 1013.96 1014.19 1014.36 1014.55 1014.83 1015.15 1015.13 1014.95 1014.88 1015.12 1015.20 1015.51 1015.73 1015.91 1016.14 1016.43 1016.20 1016.36 1016.77 1017.94 1019.02 1019.89 1020.45 1020.94 1021.27 1021.54 1021.92 1022.35 1022.34 1022.56 1023.06 1023.44 1023.65 1023.76 1023.89 1024.09 1024.22 1024.40 1024.40 1024.27
1012.79 1013.48 1014.17 1014.53 1014.61 1015.01 1015.10 1015.29 1015.58 1015.69 1015.65 1015.40 1015.23 1015.41 1015.60 1015.82 1015.82 1015.95 1015.91 1016.03 1016.21 1017.11 1017.92 1018.91 1019.82 1020.35 1021.04 1021.46 1021.73 1022.03 1022.30 1022.57 1022.86 1023.25 1023.58 1024.00 1024.36 1024.56 1024.70 1024.80 1025.00 1024.92 1024.85 1024.77
1014.32 1014.94 1015.09 1015.14 1015.33 1015.74 1015.90 1016.01 1016.27 1016.19 1015.90 1015.76 1015.64 1015.61 1016.00 1016.26 1016.09 1016.26 1016.36 1016.64 1017.19 1017.99 1018.93 1019.69 1020.16 1020.82 1021.47 1022.00 1022.32 1022.62 1022.88 1023.19 1023.60 1024.02 1024.46 1024.91 1025.14 1025.21 1025.22 1025.09 1025.14 1025.16 1025.01 1025.03
Wind_Speed
13 11 22 26 25 26 15 8 9 9 11 10 9 12 9 4 7 5 6 6 7 12 10 7 8 10 2 4 4 5 2 1 5 6 3 1 3 5 9 4 5 1 3 3
21 18 15 26 26 29 11 10 5 2 5 13 10 7 5 5 6 9 9 7 5 5 9 6 5 5 3 3 5 7 7 4 5 6 6 5 7 9 5 4 1 7 3 2
20 19 22 27 31 32 10 9 8 6 7 4 15 13 12 8 2 5 4 5 4 8 6 1 8 8 3 2 2 3 3 4 7 10 1 0 7 11 12 11 5 5 9 10
23 24 30 31 32 32 7 7 7 10 13 10 13 15 15 11 7 4 6 4 8 8 6 6 6 6 6 3 5 2 4 6 4 1 0 3 5 8 13 16 14 8 11 11
18 21 28 27 29 24 7 8 6 5 14 12 13 10 11 14 6 5 7 8 10 7 5 7 11 10 7 5 7 5 3 3 3 3 2 3 7 10 11 15 16 15 19 20
21 30 29 26 25 24 6 3 2 9 4 10 11 11 11 14 10 3 4 11 8 6 4 5 8 7 8 6 7 6 5 6 4 2 3 3 7 16 18 13 13 15 14 16
27 25 25 25 25 29 3 3 4 6 6 10 11 12 8 14 7 7 4 3 4 6 16 16 14 15 13 10 9 3 6 5 2 1 2 3 1 1 4 13 17 15 17 12
23 25 25 24 27 32 4 3 3 5 4 10 9 12 7 10 7 6 6 5 3 15 3 4 4 2 3 5 7 6 1 4 3 2 4 6 12 3 3 4 7 5 11 11
24 25 25 25 27 24 3 2 1 3 8 8 11 12 12 8 5 6 5 6 9 1 2 2 4 5 3 5 5 3 5 4 1 3 3 4 4 4 1 3 5 6 4 3
23 22 23 25 26 19 3 3 3 2 5 4 7 10 11 5 5 6 6 9 3 2 2 2 3 4 2 5 6 4 3 1 4 4 4 7 1 2 2 3 4 6 4 6
19 20 22 22 24 13 1 4 4 2 4 5 1 2 6 5 6 7 9 7 2 2 2 2 3 2 4 3 2 4 6 6 4 3 3 5 5 6 3 5 3 5 4 4
17 19 21 23 25 13 6 4 1 6 6 5 5 8 7 4 4 6 11 2 6 5 4 1 3 3 1 1 3 3 4 3 1 6 1 4 6 6 3 5 8 7 6 5
20 20 22 23 24 11 2 6 3 4 5 4 4 4 5 9 6 5 4 2 5 5 4 5 3 4 4 4 4 2 4 4 3 2 2 6 8 8 9 9 11 11 11 10
18 20 21 22 17 11 5 4 2 4 5 5 4 3 4 10 4 1 3 8 8 7 2 3 3 3 4 2 1 3 3 7 5 5 9 6 2 3 6 10 9 9 7 6
17 21 21 21 16 12 8 6 3 5 2 5 4 3 7 9 6 9 9 11 8 3 3 3 2 3 4 1 1 1 1 4 2 2 6 5 7 10 10 10 10 9 6 3
20 22 21 21 18 12 2 5 3 2 3 5 4 2 4 7 9 12 12 7 5 3 4 3 3 2 1 4 4 5 6 6 7 5 12 9 9 6 11 9 9 8 10 10
19 22 19 13 9 5 4 4 3 4 3 5 5 3 4 5 4 5 4 6 4 4 3 3 3 2 2 3 3 7 8 8 4 9 9 3 12 7 10 12 14 17 19 17
23 22 20 21 24 13 5 6 6 4 3 4 5 3 2 7 3 3 4 2 2 5 3 2 2 2 1 2 6 8 9 10 4 9 8 7 8 11 13 14 15 17 15 13
12 12 13 4 7 3 3 5 9 3 4 4 4 5 4 3 3 2 2 2 4 0 2 2 2 2 2 3 5 7 9 7 3 8 11 12 13 14 14 15 13 12 8 6
7 6 6 4 3 7 7 1 3 6 6 6 5 1 3 0 1 2 2 2 2 3 2 1 2 3 4 3 2 3 5 8 9 8 9 11 13 11 10 9 9 9 7 4
5 4 3 1 5 1 4 4 4 2 4 3 2 2 4 2 2 3 2 2 1 3 3 3 3 3 3 1 4 5 7 9 12 14 12 12 12 11 8 5 4 4 4 5
3 5 4 2 4 3 7 3 1 4 3 2 2 2 3 2 0 3 1 3 1 3 3 2 4 4 5 5 6 9 10 11 11 11 10 8 8 7 6 4 4 5 5 3
1 5 6 4 5 6 2 4 1 2 1 1 2 3 2 3 3 3 2 3 2 5 3 2 3 8 7 8 8 9 7 6 7 7 6 6 6 7 6 5 6 5 6 6
6 5 6 4 2 3 3 3 3 1 1 2 3 3 2 1 3 1 3 2 3 4 4 3 6 8 10 9 6 7 6 4 5 7 7 7 6 7 6 5 4 5 7 7
5 3 4 3 2 2 2 1 2 2 1 0 3 3 2 3 3 1 3 4 4 1 2 4 6 10 10 9 7 7 6 3 5 6 7 5 5 6 8 8 9 9 7 9
4 5 3 2 2 2 2 3 3 2 1 0 2 3 2 2 2 3 2 3 2 3 3 4 7 10 7 6 7 5 6 6 6 6 7 8 8 7 6 6 8 7 7 8
4 4 3 2 5 3 2 2 2 2 1 2 1 2 3 2 2 3 0 2 3 6 6 6 8 9 7 6 5 5 6 7 7 8 8 6 5 4 5 7 10 9 8 7
Wind_Direction
214 235 202 161 161 164 181 171 205 147 153 180 198 213 204 175 172 172 196 204 168 190 174 170 190 194 248 159 182 180 102 153 182 198 117 308 281 228 205 237 178 232 316 297
221 227 233 158 162 170 162 172 161 122 241 190 194 184 197 207 162 185 179 163 184 175 171 173 191 182 78 186 207 171 170 198 190 177 175 186 225 196 199 123 146 209 188 251
211 231 232 163 173 191 199 162 180 141 207 252 190 184 188 173 153 155 165 133 139 142 158 105 165 160 139 138 156 43 186 185 241 244 298 299 198 203 202 208 208 222 239 273
211 244 188 171 182 197 235 192 186 167 183 202 199 188 180 175 163 194 181 146 193 166 149 157 164 160 147 144 150 131 236 232 215 233 132 236 256 230 209 218 235 225 268 253
212 219 177 176 185 193 234 152 160 158 162 178 184 179 200 180 149 187 161 186 158 166 167 200 184 168 189 172 172 180 169 192 188 229 212 267 267 248 238 234 247 252 262 266
246 188 175 179 185 200 181 125 111 178 171 178 176 186 171 184 145 77 33 145 137 133 87 67 65 77 79 113 166 160 174 156 164 234 354 278 276 240 227 225 226 237 246 257
187 170 172 178 184 206 189 140 151 151 157 195 191 168 169 170 169 129 93 112 106 109 123 109 86 81 80 83 69 45 143 130 72 112 223 221 349 200 289 250 256 249 259 266
169 170 176 177 187 205 257 149 175 123 125 189 179 176 143 124 107 96 99 49 55 145 152 111 110 65 70 66 52 52 5 135 116 181 218 317 278 180 221 212 292 340 269 273
171 173 179 183 189 202 237 104 14 111 127 207 173 164 175 152 135 119 84 79 112 132 77 124 153 182 175 162 140 72 81 62 243 150 226 252 55 70 207 235 277 10 299 226
174 177 182 185 188 202 225 102 5 103 104 132 170 175 177 146 133 104 128 149 189 298 101 107 160 164 341 171 181 174 114 44 211 171 242 279 338 239 162 243 25 348 277 204
170 176 180 180 180 192 104 84 8 14 83 105 353 133 151 139 178 149 137 138 189 128 132 161 157 150 180 197 123 183 179 164 179 139 206 270 155 145 236 16 334 326 292 251
168 172 171 174 175 176 188 100 56 50 67 76 72 74 48 23 21 121 174 28 148 159 112 126 107 136 135 103 190 193 221 231 224 220 234 102 197 288 337 319 301 308 301 285
174 169 169 167 172 161 66 112 129 90 101 112 161 81 33 33 8 326 145 195 138 151 17 132 110 134 165 163 217 163 214 171 233 247 162 247 255 274 285 288 284 293 284 283
169 161 158 158 145 132 109 113 121 79 80 113 96 356 42 346 336 330 360 118 96 107 113 107 133 122 234 181 75 240 18 168 198 248 285 300 254 323 335 318 315 300 299 307
144 144 144 137 121 125 107 92 83 85 304 130 116 136 27 22 63 86 110 125 121 133 104 97 107 106 143 67 253 204 275 20 246 281 1 317 315 343 339 321 329 334 318 354
118 124 121 122 134 161 177 87 62 74 267 115 122 76 26 30 64 66 59 52 63 68 83 96 89 62 216 146 178 74 25 4 339 304 322 313 332 30 7 15 21 48 65 73
100 108 108 117 132 69 64 85 39 0 254 103 101 106 48 351 30 45 32 32 62 44 94 69 107 104 209 167 175 19 347 339 3 2 334 133 34 28 44 65 75 74 73 71
89 95 99 102 102 126 46 26 25 307 108 70 112 85 137 5 53 78 354 51 58 33 95 106 100 105 28 141 29 355 357 338 75 20 41 70 77 74 70 73 81 80 77 75
107 119 140 116 44 82 105 328 303 39 34 102 80 129 143 13 66 46 68 4 71 35 90 91 172 138 103 43 349 1 357 351 344 68 71 72 80 85 92 93 86 87 88 101
84 41 39 51 24 336 287 33 29 27 24 32 80 358 105 333 128 76 91 30 99 147 77 135 73 89 90 54 20 340 356 6 159 115 89 98 96 95 92 102 122 136 159 158
42 68 78 254 319 211 33 66 47 351 64 35 75 63 118 16 125 115 1 102 65 159 128 214 140 135 147 157 109 88 74 79 85 99 112 119 125 133 136 131 85 30 354 346
57 95 108 100 31 58 77 40 27 33 94 76 82 77 76 97 126 106 127 101 154 156 118 169 168 123 131 129 104 96 94 93 95 98 101 95 80 60 51 31 10 6 359 357
150 47 51 15 325 51 104 161 103 113 131 123 147 92 66 127 78 80 115 136 116 129 180 183 60 130 136 131 127 118 108 101 105 100 87 69 63 49 35 34 33 352 24 15
54 42 47 31 84 46 37 28 69 79 70 79 83 77 59 31 69 57 120 80 155 200 206 162 147 146 151 149 141 141 117 86 84 80 75 65 56 63 64 46 36 35 30 18
70 41 78 65 75 66 67 54 88 37 70 79 97 72 64 48 105 41 128 168 202 258 95 128 145 152 149 143 134 115 104 103 95 83 75 59 50 65 69 52 34 24 16 8
55 53 95 92 96 67 53 40 67 16 26 27 43 95 117 98 111 169 173 196 160 140 124 116 130 148 134 146 119 96 97 101 95 82 77 69 55 47 40 37 27 8 19 3
50 52 17 30 61 57 53 51 44 317 36 74 101 118 68 127 136 135 204 77 107 120 114 122 138 147 137 141 136 124 111 102 93 80 67 63 57 48 37 19 12 356 357 352